User: anonymous   Login
Location: Unspecified
(0.0000°N, 0.0000°E)
Time: 22:49:23
(UTC+00:00)
Language:

TATIANA - Orbit

View from above orbital plane
View from above orbital plane
View from above satellite
View from above satellite

Ground track
Ground track

The orbit data is extracted from the following two-line orbital elements,

1 28523U 05002C   17113.91549477 +.00000068 +00000-0 +44106-4 0  9999
2 28523 082.9517 051.5954 0038846 140.3018 220.1000 13.87426478620563
Epoch (UTC): 23 April 2017 21:58:18
Eccentricity: 0.0038846
inclination: 82.9517°
perigee height: 909 km
apogee height: 966 km
right ascension of ascending node: 51.5954°
argument of perigee: 140.3018°
revolutions per day: 13.87426478
mean anomaly at epoch: 220.1000°
orbit number at epoch: 62056

The dashed part of the orbit path shows where the satellite is in the earth's shadow,  

DLR